Verona, Missouri
Current Conditions -  °F | °C
As of 11:15 PM on Friday 28 Nov 2014 (Local Time) from KHFJ Reporting Station
Clear Clear  
Wind Chill: 52°   Ceiling: Unl
Heat Index: 52°   Visibility: 10mi
Dew Point: 43°   Wind: 18mph
Humidity: 71%   Direction: 200°SSW
Pressure: 29.86"   Gusts: 24mph
Location:  36.96°N, 93.8°W
Report Text: KHFJ 290515Z AUTO 20016G21KT 10SM CLR 11/06 A2986 RMK AO2
Loading
Personal Weather Stations






























Interactive Weather Map New forecast layout! Learn more

10-Day Weather Forecast

Advertisements
Track Severe Weather on mobile